�������l�o���
Date,Time,MP-1(��Sv/h),MP-2(��Sv/h),MP-3(��Sv/h),MP-4(��Sv/h),MP-5(��Sv/h),MP-6(��Sv/h),MP-7(��Sv/h),MP-8(��Sv/h),����,����(m/s),���J
2018/02/17,00:00,0.894,1.490,0.935,1.745,1.208,0.489,0.868,0.837,��쐼,1.7,��
2018/02/17,00:10,0.893,1.490,0.931,1.745,1.205,0.489,0.868,0.838,��쐼,1.7,��
2018/02/17,00:20,0.891,1.493,0.930,1.743,1.203,0.488,0.869,0.838,��쐼,2.0,��
2018/02/17,00:30,0.893,1.490,0.932,1.742,1.207,0.489,0.867,0.837,��쐼,1.9,��
2018/02/17,00:40,0.893,1.490,0.930,1.743,1.204,0.490,0.869,0.836,��쐼,1.7,��
2018/02/17,00:50,0.894,1.493,0.931,1.742,1.202,0.490,0.869,0.838,��,1.5,��
2018/02/17,01:00,0.892,1.490,0.931,1.745,1.207,0.489,0.869,0.838,��,1.4,��
2018/02/17,01:10,0.892,1.493,0.934,1.743,1.205,0.490,0.867,0.836,��,1.4,��
2018/02/17,01:20,0.893,1.493,0.930,1.742,1.204,0.488,0.870,0.838,��쐼,1.2,��
2018/02/17,01:30,0.893,1.493,0.932,1.746,1.205,0.490,0.869,0.836,��쐼,1.1,��
2018/02/17,01:40,0.895,1.491,0.932,1.744,1.205,0.489,0.870,0.838,��쐼,1.7,��
2018/02/17,01:50,0.893,1.489,0.929,1.742,1.207,0.489,0.867,0.837,��쐼,2.0,��
2018/02/17,02:00,0.894,1.492,0.932,1.743,1.204,0.489,0.870,0.836,��쐼,2.2,��
2018/02/17,02:10,0.892,1.492,0.930,1.743,1.206,0.490,0.869,0.838,��쐼,2.2,��
2018/02/17,02:20,0.894,1.491,0.929,1.743,1.204,0.489,0.870,0.838,��쐼,1.2,��
2018/02/17,02:30,0.894,1.491,0.933,1.744,1.204,0.489,0.869,0.838,��쐼,1.2,��
2018/02/17,02:40,0.893,1.491,0.931,1.743,1.206,0.489,0.869,0.838,�쓌,0.9,��
2018/02/17,02:50,0.895,1.491,0.932,1.746,1.206,0.489,0.868,0.838,�쓌,0.9,��
2018/02/17,03:00,0.894,1.491,0.931,1.745,1.203,0.490,0.869,0.838,-,CALM,��
2018/02/17,03:10,0.894,1.493,0.930,1.743,1.205,0.489,0.869,0.836,��쐼,0.8,��
2018/02/17,03:20,0.894,1.494,0.931,1.744,1.205,0.491,0.869,0.838,��쐼,1.4,��
2018/02/17,03:30,0.893,1.494,0.932,1.745,1.204,0.491,0.870,0.837,�쐼,3.7,��
2018/02/17,03:40,0.892,1.493,0.932,1.743,1.205,0.491,0.870,0.838,�쐼,3.5,��
2018/02/17,03:50,0.892,1.490,0.929,1.743,1.203,0.490,0.867,0.838,��쐼,3.5,��
2018/02/17,04:00,0.893,1.490,0.930,1.743,1.203,0.491,0.870,0.838,��,2.6,��
2018/02/17,04:10,0.893,1.492,0.930,1.743,1.204,0.491,0.869,0.837,��,3.1,��
2018/02/17,04:20,0.891,1.493,0.930,1.742,1.205,0.489,0.870,0.837,��,2.6,��
2018/02/17,04:30,0.891,1.491,0.931,1.741,1.203,0.488,0.868,0.836,��,4.3,��
2018/02/17,04:40,0.892,1.489,0.931,1.740,1.205,0.490,0.868,0.837,��,4.1,��
2018/02/17,04:50,0.892,1.492,0.931,1.744,1.205,0.489,0.869,0.838,��쐼,3.5,��
2018/02/17,05:00,0.892,1.493,0.932,1.742,1.203,0.489,0.870,0.839,��,3.5,��
2018/02/17,05:10,0.891,1.490,0.931,1.743,1.206,0.489,0.870,0.838,��,4.9,��
2018/02/17,05:20,0.893,1.490,0.929,1.744,1.204,0.489,0.868,0.838,��,4.6,��
2018/02/17,05:30,0.893,1.490,0.931,1.743,1.205,0.490,0.870,0.839,��,4.5,��
2018/02/17,05:40,0.890,1.492,0.927,1.742,1.204,0.489,0.867,0.839,��,5.0,��
2018/02/17,05:50,0.892,1.490,0.930,1.745,1.203,0.491,0.868,0.836,��,5.5,��
2018/02/17,06:00,0.891,1.491,0.928,1.743,1.205,0.489,0.870,0.837,��,5.5,��
2018/02/17,06:10,0.892,1.491,0.933,1.742,1.204,0.489,0.869,0.836,��,4.6,��
2018/02/17,06:20,0.891,1.490,0.931,1.741,1.202,0.489,0.868,0.837,��,5.9,��
2018/02/17,06:30,0.892,1.489,0.930,1.744,1.205,0.490,0.867,0.838,��,5.9,��
2018/02/17,06:40,0.894,1.490,0.929,1.745,1.205,0.489,0.871,0.838,��,6.8,��
2018/02/17,06:50,0.893,1.488,0.929,1.744,1.203,0.490,0.868,0.837,��,7.2,��
2018/02/17,07:00,0.894,1.490,0.929,1.742,1.201,0.490,0.868,0.838,��,7.2,��
2018/02/17,07:10,0.891,1.492,0.929,1.743,1.203,0.490,0.868,0.839,��쓌,7.0,��
2018/02/17,07:20,0.893,1.490,0.929,1.743,1.205,0.490,0.868,0.837,��쓌,6.7,��
2018/02/17,07:30,0.892,1.490,0.931,1.742,1.202,0.490,0.869,0.837,��쓌,5.4,��
2018/02/17,07:40,0.893,1.491,0.929,1.744,1.202,0.490,0.869,0.838,��쓌,5.3,��
2018/02/17,07:50,0.896,1.492,0.929,1.743,1.203,0.491,0.871,0.838,��쓌,5.3,��
2018/02/17,08:00,0.894,1.490,0.930,1.743,1.203,0.491,0.871,0.838,��쓌,5.0,��
2018/02/17,08:10,0.895,1.494,0.931,1.747,1.204,0.491,0.872,0.838,��,4.6,��
2018/02/17,08:20,0.893,1.492,0.932,1.745,1.205,0.490,0.870,0.839,��,4.3,��
2018/02/17,08:30,0.895,1.495,0.932,1.742,1.204,0.490,0.871,0.838,��,4.7,��
2018/02/17,08:40,0.894,1.490,0.931,1.743,1.207,0.492,0.871,0.839,��,4.2,��
2018/02/17,08:50,0.896,1.492,0.932,1.742,1.205,0.492,0.872,0.839,�쐼,1.2,��
2018/02/17,09:00,0.894,1.497,0.930,1.746,1.204,0.491,0.873,0.839,��,7.7,��
2018/02/17,09:10,0.895,1.494,0.931,1.747,1.206,0.493,0.872,0.839,��,6.5,��
2018/02/17,09:20,0.898,1.493,0.931,1.746,1.205,0.491,0.871,0.838,���쐼,9.5,��
2018/02/17,09:30,0.896,1.494,0.935,1.746,1.206,0.492,0.872,0.841,���쐼,9.4,��
2018/02/17,09:40,0.895,1.493,0.932,1.747,1.204,0.490,0.871,0.839,���쐼,8.5,��
2018/02/17,09:50,0.899,1.498,0.933,1.745,1.207,0.491,0.871,0.837,���쐼,8.8,��
2018/02/17,10:00,0.898,1.493,0.933,1.744,1.207,0.492,0.873,0.839,���쐼,8.4,��
2018/02/17,10:10,0.897,1.493,0.934,1.747,1.207,0.491,0.873,0.839,��,8.2,��
2018/02/17,10:20,0.900,1.494,0.934,1.749,1.205,0.492,0.873,0.841,��,9.3,��
2018/02/17,10:30,0.896,1.497,0.934,1.747,1.207,0.493,0.873,0.840,���쐼,9.6,��
2018/02/17,10:40,0.898,1.493,0.934,1.748,1.207,0.494,0.871,0.841,��,10.5,��
2018/02/17,10:50,0.898,1.494,0.935,1.750,1.207,0.492,0.870,0.841,��,7.6,��
2018/02/17,11:00,0.899,1.494,0.936,1.750,1.208,0.492,0.870,0.841,��,8.5,��
2018/02/17,11:10,0.900,1.490,0.934,1.750,1.209,0.493,0.872,0.842,��,9.0,��
2018/02/17,11:20,0.899,1.491,0.935,1.750,1.208,0.492,0.870,0.841,��,9.7,��
2018/02/17,11:30,0.900,1.494,0.936,1.750,1.208,0.492,0.872,0.840,��,10.2,��
2018/02/17,11:40,0.899,1.492,0.934,1.752,1.209,0.493,0.870,0.840,���k��,10.0,�L
2018/02/17,11:50,0.898,1.491,0.936,1.748,1.207,0.492,0.871,0.840,�k��,9.4,�L
2018/02/17,12:00,0.899,1.493,0.937,1.750,1.208,0.493,0.871,0.840,���k��,7.6,�L
2018/02/17,12:10,0.899,1.493,0.936,1.751,1.204,0.494,0.870,0.841,���k��,8.3,��
2018/02/17,12:20,0.898,1.492,0.936,1.752,1.207,0.493,0.869,0.840,���k��,9.2,��
2018/02/17,12:30,0.899,1.492,0.938,1.750,1.210,0.493,0.871,0.840,���k��,10.5,��
2018/02/17,12:40,0.899,1.494,0.935,1.751,1.210,0.493,0.869,0.840,�k��,11.8,�L
2018/02/17,12:50,0.899,1.493,0.934,1.750,1.210,0.492,0.868,0.839,���k��,12.2,��
2018/02/17,13:00,0.897,1.496,0.936,1.752,1.211,0.492,0.868,0.841,���k��,9.1,��
2018/02/17,13:10,0.896,1.491,0.934,1.751,1.211,0.490,0.870,0.841,���k��,11.3,��
2018/02/17,13:20,0.899,1.492,0.933,1.753,1.212,0.493,0.868,0.841,���k��,8.3,��
2018/02/17,13:30,0.899,1.496,0.935,1.750,1.209,0.492,0.869,0.842,�k��,12.5,��
2018/02/17,13:40,0.900,1.495,0.934,1.749,1.209,0.491,0.869,0.840,���k��,10.6,��
2018/02/17,13:50,0.900,1.492,0.933,1.750,1.209,0.492,0.870,0.841,���k��,16.1,��
2018/02/17,14:00,0.895,1.499,0.936,1.749,1.208,0.491,0.872,0.841,���k��,13.3,��
2018/02/17,14:10,0.897,1.492,0.934,1.749,1.208,0.493,0.871,0.838,���k��,11.3,��
2018/02/17,14:20,0.897,1.497,0.932,1.751,1.207,0.490,0.870,0.839,���k��,14.9,�L
2018/02/17,14:30,0.897,1.499,0.932,1.749,1.209,0.490,0.868,0.838,���k��,9.1,��
2018/02/17,14:40,0.896,1.498,0.935,1.749,1.208,0.493,0.871,0.841,���k��,9.5,��
2018/02/17,14:50,0.897,1.495,0.935,1.751,1.211,0.493,0.871,0.840,���k��,11.4,��
2018/02/17,15:00,0.896,1.495,0.934,1.750,1.211,0.492,0.871,0.840,�k��,12.4,��
2018/02/17,15:10,0.898,1.496,0.933,1.751,1.209,0.492,0.869,0.839,�k��,12.7,��
2018/02/17,15:20,0.895,1.494,0.933,1.754,1.209,0.492,0.870,0.841,�k��,13.5,��
2018/02/17,15:30,0.896,1.495,0.933,1.751,1.209,0.491,0.872,0.839,�k��,13.6,��
2018/02/17,15:40,0.896,1.497,0.931,1.750,1.212,0.491,0.870,0.840,�k��,11.4,��
2018/02/17,15:50,0.893,1.495,0.933,1.751,1.209,0.490,0.870,0.839,�k��,10.3,��
2018/02/17,16:00,0.895,1.499,0.933,1.750,1.208,0.489,0.870,0.838,�k��,10.6,��
2018/02/17,16:10,0.894,1.495,0.931,1.752,1.207,0.490,0.871,0.838,�k��,8.4,��
2018/02/17,16:20,0.894,1.495,0.931,1.751,1.209,0.490,0.872,0.840,�k��,11.6,��
2018/02/17,16:30,0.892,1.497,0.933,1.748,1.207,0.488,0.872,0.838,�k��,9.1,��
2018/02/17,16:40,0.891,1.495,0.930,1.747,1.208,0.488,0.869,0.839,�k��,11.4,�L
2018/02/17,16:50,0.891,1.495,0.928,1.748,1.209,0.488,0.870,0.838,�k��,11.6,��
2018/02/17,17:00,0.891,1.495,0.927,1.747,1.208,0.487,0.869,0.839,�k��,8.1,�L
2018/02/17,17:10,0.891,1.494,0.928,1.747,1.206,0.488,0.870,0.837,�k�k��,10.2,�L
2018/02/17,17:20,0.889,1.495,0.929,1.746,1.207,0.488,0.870,0.838,�k��,8.1,�L
2018/02/17,17:30,0.890,1.490,0.929,1.745,1.205,0.488,0.867,0.836,�k�k��,7.1,��
2018/02/17,17:40,0.888,1.493,0.928,1.744,1.207,0.487,0.865,0.840,�k�k��,7.8,��
2018/02/17,17:50,0.890,1.490,0.929,1.744,1.208,0.488,0.870,0.840,�k�k��,6.5,�L
2018/02/17,18:00,0.889,1.490,0.927,1.745,1.206,0.488,0.866,0.839,�k�k��,7.9,�L
2018/02/17,18:10,0.890,1.489,0.928,1.744,1.205,0.488,0.867,0.837,�k��,8.8,�L
2018/02/17,18:20,0.891,1.486,0.930,1.743,1.205,0.487,0.869,0.838,�k��,6.7,�L
2018/02/17,18:30,0.887,1.485,0.927,1.742,1.204,0.488,0.867,0.841,�k��,7.5,�L
2018/02/17,18:40,0.885,1.484,0.926,1.739,1.203,0.489,0.867,0.838,�k��,8.5,�L
2018/02/17,18:50,0.885,1.482,0.926,1.735,1.199,0.489,0.866,0.838,�k��,7.0,�L
2018/02/17,19:00,0.885,1.480,0.926,1.736,1.197,0.487,0.869,0.838,�k�k��,6.5,�L
2018/02/17,19:10,0.884,1.481,0.924,1.735,1.199,0.489,0.868,0.837,�k�k��,6.9,�L
2018/02/17,19:20,0.883,1.479,0.923,1.731,1.197,0.489,0.867,0.837,�k��,8.2,�L
2018/02/17,19:30,0.882,1.478,0.924,1.733,1.195,0.488,0.866,0.836,�k��,9.8,�L
2018/02/17,19:40,0.883,1.478,0.921,1.734,1.194,0.487,0.865,0.837,�k��,9.6,�L
2018/02/17,19:50,0.880,1.477,0.924,1.729,1.195,0.486,0.866,0.836,�k��,9.1,��
2018/02/17,20:00,0.880,1.475,0.918,1.730,1.195,0.488,0.867,0.837,�k��,10.2,�L
2018/02/17,20:10,0.879,1.478,0.920,1.729,1.191,0.486,0.866,0.836,���k��,8.1,��
2018/02/17,20:20,0.880,1.477,0.919,1.729,1.191,0.485,0.863,0.837,�k��,9.2,��
2018/02/17,20:30,0.878,1.476,0.918,1.728,1.191,0.484,0.864,0.837,�k��,8.2,��
2018/02/17,20:40,0.878,1.474,0.919,1.726,1.190,0.484,0.864,0.836,�k��,8.4,�L
2018/02/17,20:50,0.879,1.474,0.918,1.727,1.192,0.485,0.863,0.836,�k��,11.4,�L
2018/02/17,21:00,0.879,1.475,0.917,1.730,1.190,0.485,0.862,0.835,�k��,11.6,�L
2018/02/17,21:10,0.877,1.479,0.918,1.727,1.192,0.485,0.863,0.835,�k��,10.4,�L
2018/02/17,21:20,0.879,1.478,0.920,1.726,1.191,0.486,0.862,0.837,���k��,11.4,�L
2018/02/17,21:30,0.880,1.476,0.920,1.729,1.191,0.486,0.865,0.836,���k��,10.9,��
2018/02/17,21:40,0.879,1.477,0.920,1.730,1.187,0.486,0.864,0.838,���k��,9.7,��
2018/02/17,21:50,0.878,1.479,0.919,1.725,1.190,0.486,0.864,0.836,���k��,10.2,��
2018/02/17,22:00,0.879,1.479,0.921,1.727,1.190,0.486,0.864,0.837,���k��,9.3,�L
2018/02/17,22:10,0.877,1.476,0.920,1.729,1.189,0.487,0.863,0.836,���k��,9.5,�L
2018/02/17,22:20,0.879,1.475,0.919,1.729,1.188,0.485,0.861,0.837,���k��,8.6,��
2018/02/17,22:30,0.875,1.474,0.919,1.731,1.188,0.488,0.861,0.837,�k��,7.4,��
2018/02/17,22:40,0.876,1.475,0.919,1.726,1.189,0.488,0.863,0.836,���k��,6.4,��
2018/02/17,22:50,0.876,1.474,0.920,1.727,1.190,0.488,0.863,0.834,�k��,6.0,��
2018/02/17,23:00,0.877,1.477,0.920,1.727,1.192,0.486,0.865,0.835,�k��,6.3,��
2018/02/17,23:10,0.877,1.477,0.922,1.728,1.191,0.486,0.863,0.835,�k��,5.2,��
2018/02/17,23:20,0.877,1.472,0.919,1.729,1.190,0.487,0.864,0.834,�k��,5.7,��
2018/02/17,23:30,0.876,1.475,0.919,1.725,1.190,0.487,0.863,0.834,���k��,5.3,�L
2018/02/17,23:40,0.878,1.475,0.919,1.727,1.189,0.486,0.863,0.836,���k��,5.2,�L
2018/02/17,23:50,0.874,1.474,0.918,1.728,1.191,0.486,0.865,0.834,��,3.9,�L
